Date String (YYYY-MM-DD hh:mm:ss) UTC,Instrument flags,Ambient pressure (hPa),Sample flow (lpm),Bypass flow (lpm),Sample temperature (°C),Ambient temperature (°C),ASC tube jacket temperature (°C),LED temperature (°C),Box temperature (°C),Sample RH (%),Span deviation,Mass concentration (μg/m³),Mass concentration (μg/m³),Mass concentration (μg/m³)
DateTimeUTC,F1_M11,P_M11,Q1_M11,Q2_M11,T1_M11,T2_M11,T3_M11,T4_M11,T5_M11,U1_M11,ZSPAN_M11,X0_M11,X2_M11,X1_M11
2022-11-28 01:00:00,,0815.7,4.99,0.00,22.1,20.4,00.0,31.2,23.8,07.7,0000.0,0002.39,0000.91,0000.72
2022-11-28 01:01:00,,0815.9,5.00,0.00,22.0,20.4,00.0,31.1,23.6,07.8,0000.0,0003.53,0000.90,0000.70
2022-11-28 01:02:00,,0815.7,5.01,0.00,22.0,20.4,00.0,31.1,23.6,07.4,0000.0,0003.53,0000.89,0000.69
2022-11-28 01:03:00,,0815.7,4.99,0.00,22.0,20.3,00.0,31.1,23.7,07.3,0000.0,0003.87,0000.89,0000.69
2022-11-28 01:04:00,,0815.7,5.01,0.00,22.0,20.3,00.0,31.1,23.6,07.5,0000.0,0004.02,0000.90,0000.67
2022-11-28 01:05:00,,0815.8,5.00,0.00,21.9,20.3,00.0,31.1,23.4,07.6,0000.0,0004.74,0000.91,0000.66
2022-11-28 01:06:00,,0815.6,5.02,0.00,21.9,20.2,00.0,31.1,23.4,07.5,0000.0,0005.02,0000.93,0000.65
2022-11-28 01:07:00,,0815.8,4.99,0.00,21.9,20.2,00.0,31.1,23.5,07.4,0000.0,0005.00,0000.91,0000.64
2022-11-28 01:08:00,,0815.9,5.01,0.00,21.9,20.2,00.0,31.0,23.5,07.5,0000.0,0005.05,0000.91,0000.63
2022-11-28 01:09:00,,0815.7,5.01,0.00,21.9,20.2,00.0,31.0,23.4,07.3,0000.0,0004.41,0000.91,0000.64
2022-11-28 01:10:00,,0815.7,4.99,0.00,21.8,20.1,00.0,31.0,23.5,07.4,0000.0,0003.88,0000.89,0000.63
2022-11-28 01:11:00,,0815.6,4.99,0.00,21.8,20.1,00.0,31.0,23.5,07.9,0000.0,0003.85,0000.87,0000.63
2022-11-28 01:12:00,,0816.1,5.00,0.00,21.8,20.1,00.0,30.9,23.5,08.1,0000.0,0003.34,0000.88,0000.64
2022-11-28 01:13:00,,0815.6,5.02,0.00,21.8,20.1,00.0,30.9,23.4,08.3,0000.0,0003.38,0000.88,0000.65
2022-11-28 01:14:00,,0815.3,4.99,0.00,21.8,20.1,00.0,30.9,23.5,08.4,0000.0,0003.02,0000.88,0000.66
2022-11-28 01:15:00,,0815.3,5.00,0.00,21.8,20.1,00.0,30.9,23.5,08.3,0000.0,0002.92,0000.89,0000.67
2022-11-28 01:16:00,,0815.3,5.02,0.00,21.8,20.1,00.0,30.9,23.5,08.4,0000.0,0003.38,0000.89,0000.67
2022-11-28 01:17:00,,0815.3,4.98,0.00,21.8,20.1,00.0,30.9,23.5,08.4,0000.0,0003.70,0000.89,0000.68
2022-11-28 01:18:00,,0815.2,5.01,0.00,21.7,20.0,00.0,30.9,23.4,08.5,0000.0,0004.36,0000.93,0000.69
2022-11-28 01:19:00,,0815.2,5.00,0.00,21.7,20.0,00.0,30.8,23.3,08.5,0000.0,0005.02,0000.95,0000.69
2022-11-28 01:20:00,,0815.2,4.99,0.00,21.7,20.0,00.0,30.8,23.3,08.6,0000.0,0004.95,0000.92,0000.69
2022-11-28 01:21:00,,0815.3,5.02,0.00,21.6,19.9,00.0,30.8,23.2,08.6,0000.0,0005.02,0000.95,0000.71
2022-11-28 01:22:00,,0815.1,5.00,0.00,21.6,19.9,00.0,30.8,23.3,08.6,0000.0,0005.06,0000.97,0000.71
2022-11-28 01:23:00,,0815.3,5.00,0.00,21.6,19.9,00.0,30.8,23.3,08.6,0000.0,0004.80,0000.99,0000.71
2022-11-28 01:24:00,,0815.1,5.00,0.00,21.6,19.9,00.0,30.7,23.2,08.8,0000.0,0004.49,0000.99,0000.71
2022-11-28 01:25:00,,0814.9,5.00,0.00,21.6,19.8,00.0,30.7,23.2,08.8,0000.0,0004.45,0000.97,0000.71
2022-11-28 01:26:00,,0814.9,5.00,0.00,21.6,19.8,00.0,30.7,23.2,08.9,0000.0,0004.39,0000.94,0000.69
2022-11-28 01:27:00,,0815.0,5.00,0.00,21.5,19.8,00.0,30.7,23.2,09.1,0000.0,0003.36,0000.93,0000.70
2022-11-28 01:28:00,,0815.1,4.99,0.00,21.5,19.8,00.0,30.6,23.2,09.2,0000.0,0003.41,0000.92,0000.70
2022-11-28 01:29:00,,0814.7,4.99,0.00,21.5,19.8,00.0,30.6,23.2,09.1,0000.0,0003.16,0000.91,0000.70
2022-11-28 01:30:00,,0814.8,5.00,0.00,21.5,19.8,00.0,30.6,23.3,09.1,0000.0,0002.26,0000.91,0000.71
2022-11-28 01:31:00,,0814.9,5.01,0.00,21.5,19.8,00.0,30.6,23.2,09.1,0000.0,0002.25,0000.90,0000.71
2022-11-28 01:32:00,,0815.0,5.00,0.00,21.5,19.7,00.0,30.6,23.2,09.1,0000.0,0002.22,0000.90,0000.71
2022-11-28 01:33:00,,0814.9,4.99,0.00,21.5,19.7,00.0,30.6,23.1,09.2,0000.0,0002.22,0000.90,0000.71
2022-11-28 01:34:00,,0814.9,4.99,0.00,21.5,20.0,00.0,30.5,23.2,09.0,0000.0,0002.14,0000.88,0000.71
2022-11-28 01:35:00,,0814.9,5.01,0.00,21.6,20.9,00.0,30.4,23.5,09.0,0000.0,0002.11,0000.88,0000.72
2022-11-28 01:36:00,,0815.0,5.01,0.00,21.7,21.7,00.0,30.4,23.7,08.9,0000.0,0002.15,0000.88,0000.72
2022-11-28 01:37:00,,0814.9,4.99,0.00,21.7,21.5,00.0,30.5,23.7,08.7,0000.0,0002.17,0000.89,0000.72
2022-11-28 01:38:00,,0814.9,4.99,0.00,21.7,21.1,00.0,30.5,23.7,08.8,0000.0,0002.24,0000.88,0000.71
2022-11-28 01:39:00,,0814.9,5.00,0.00,21.7,20.9,00.0,30.6,23.6,08.9,0000.0,0001.53,0000.87,0000.72
2022-11-28 01:40:00,,0814.9,5.00,0.00,21.7,20.7,00.0,30.6,23.5,08.8,0000.0,0001.26,0000.85,0000.72
2022-11-28 01:41:00,,0815.0,4.99,0.00,21.7,20.5,00.0,30.6,23.5,08.8,0000.0,0001.22,0000.82,0000.71
2022-11-28 01:42:00,,0814.9,5.00,0.00,21.7,20.4,00.0,30.6,23.4,08.9,0000.0,0001.30,0000.83,0000.71
2022-11-28 01:43:00,,0815.0,5.01,0.00,21.6,20.3,00.0,30.6,23.3,08.9,0000.0,0001.41,0000.82,0000.71
2022-11-28 01:44:00,,0815.1,5.00,0.00,21.6,20.2,00.0,30.6,23.3,08.9,0000.0,0001.39,0000.81,0000.71
2022-11-28 01:45:00,,0814.9,5.00,0.00,21.6,20.2,00.0,30.6,23.3,08.9,0000.0,0001.39,0000.82,0000.71
2022-11-28 01:46:00,,0814.9,5.00,0.00,21.6,20.1,00.0,30.6,23.2,08.9,0000.0,0001.40,0000.82,0000.70
2022-11-28 01:47:00,,0814.9,4.99,0.00,21.6,20.1,00.0,30.6,23.2,09.0,0000.0,0001.35,0000.81,0000.71
2022-11-28 01:48:00,,0814.9,4.99,0.00,21.5,20.1,00.0,30.6,23.3,09.0,0000.0,0001.36,0000.82,0000.72
2022-11-28 01:49:00,,0814.9,5.01,0.00,21.5,20.0,00.0,30.6,23.3,09.0,0000.0,0001.30,0000.83,0000.71
2022-11-28 01:50:00,,0814.9,5.01,0.00,21.5,20.0,00.0,30.6,23.2,09.0,0000.0,0001.28,0000.82,0000.71
2022-11-28 01:51:00,,0814.9,4.99,0.00,21.5,19.9,00.0,30.6,23.2,08.9,0000.0,0001.28,0000.82,0000.71
2022-11-28 01:52:00,,0814.8,4.99,0.00,21.5,19.8,00.0,30.5,23.1,09.0,0000.0,0001.33,0000.84,0000.71
2022-11-28 01:53:00,,0814.9,5.00,0.00,21.4,19.8,00.0,30.5,23.1,09.1,0000.0,0001.29,0000.83,0000.71
2022-11-28 01:54:00,,0814.9,5.01,0.00,21.4,19.8,00.0,30.5,23.1,09.1,0000.0,0001.10,0000.81,0000.71
2022-11-28 01:55:00,,0814.9,5.00,0.00,21.4,19.7,00.0,30.5,23.1,09.0,0000.0,0001.11,0000.82,0000.72
2022-11-28 01:56:00,,0814.8,4.99,0.00,21.3,19.6,00.0,30.4,23.0,09.1,0000.0,0001.23,0000.84,0000.72
2022-11-28 01:57:00,,0814.8,5.00,0.00,21.3,19.6,00.0,30.4,23.0,09.1,0000.0,0001.21,0000.83,0000.71
2022-11-28 01:58:00,,0814.9,5.01,0.00,21.3,19.6,00.0,30.4,23.0,09.1,0000.0,0001.20,0000.82,0000.70
2022-11-28 01:59:00,,0814.8,5.00,0.00,21.3,19.6,00.0,30.4,23.0,09.2,0000.0,0001.21,0000.81,0000.69
